Temperature
13 13 13 13 13 13 13 13 13 13 13 13 13 13 13 13 13 13 13 13 13 13 13 13 13 13 13 13 13 13 13 13 13 13 13 13 13 13 13 13 13 12 12
13 13 13 13 13 13 13 13 13 13 13 13 13 13 13 13 13 13 13 12 12 12 12 12 12 12 12 12 12 12 12 12 13 13 13 13 13 13 13 13 12 12 12
12 12 12 13 13 13 13 13 13 13 13 13 13 13 13 13 13 13 12 12 12 12 12 12 12 12 12 12 12 11 12 12 12 12 12 12 12 12 12 12 12 12 12
12 12 12 12 12 12 12 12 12 12 12 12 12 12 12 12 12 12 12 12 12 11 11 11 11 11 11 11 11 11 11 11 11 11 11 11 12 12 12 12 12 12 12
12 12 12 12 12 12 12 12 12 12 12 12 12 12 12 12 12 12 11 11 11 11 11 11 11 11 11 11 11 11 10 10 10 11 11 11 11 11 11 11 11 11 11
11 12 11 11 11 11 12 12 12 12 11 11 11 11 11 11 11 11 11 11 11 11 11 11 10 10 10 10 10 10 10 10 10 10 10 10 10 10 10 10 10 11 11
11 11 11 11 11 11 11 11 11 11 11 11 11 11 11 11 10 10 10 10 10 10 10 10 10 10 10 10 10 10 10 9 9 9 9 9 10 10 10 10 10 10 10
10 10 11 11 11 11 11 11 10 10 10 10 10 10 10 10 10 10 10 9 9 9 9 9 9 9 9 9 9 9 9 9 9 9 9 9 9 9 9 10 10 10 10
10 10 10 10 10 10 10 10 10 10 10 10 9 9 9 8 8 9 9 9 9 9 9 9 9 9 8 8 8 8 8 8 8 8 8 8 8 8 9 9 9 9 9
10 10 10 10 10 10 10 10 9 9 9 9 9 9 8 8 7 7 7 8 8 8 8 8 8 8 8 8 8 8 8 8 8 8 7 7 8 8 8 8 8 8 8
9 9 9 9 9 9 9 9 9 9 9 9 8 8 8 8 7 7 6 7 7 7 7 7 7 7 7 7 7 7 7 7 7 7 7 7 7 7 7 7 7 7 8
9 9 9 9 8 8 8 8 8 8 8 8 8 8 7 7 7 6 6 6 6 7 7 7 7 7 7 6 7 7 7 7 7 7 7 6 7 7 7 7 7 7 7
8 8 8 8 8 8 8 8 8 7 7 7 7 7 7 7 6 6 6 5 5 6 6 6 6 6 6 6 6 6 6 6 6 6 6 6 6 6 6 6 6 6 6
8 8 8 8 7 7 7 7 7 7 7 7 7 6 6 6 6 6 5 5 4 4 5 5 5 5 5 5 5 5 5 5 5 5 5 5 5 5 5 5 5 5 5
7 7 7 7 7 7 7 7 7 6 6 6 6 6 6 6 5 5 5 5 4 3 4 4 4 5 5 4 4 4 5 5 5 5 5 4 4 5 4 4 4 5 5
7 7 7 7 7 6 6 6 6 6 6 6 6 5 5 5 5 5 5 4 4 3 3 4 4 4 4 4 4 4 4 4 4 4 4 4 4 4 4 4 4 4 4
6 6 6 6 6 6 6 6 5 5 5 5 5 5 5 5 4 4 4 4 4 3 3 3 3 3 3 3 3 3 3 3 3 3 3 3 3 3 3 3 3 3 3
6 6 6 6 6 5 5 5 5 5 5 5 5 4 4 4 4 4 4 3 3 3 2 2 3 3 3 3 3 3 3 3 3 3 3 3 3 3 3 3 3 3 3
5 5 5 5 5 5 5 5 4 4 4 4 4 4 4 3 3 3 3 3 3 2 2 2 2 2 2 2 2 2 2 2 2 2 2 2 2 2 2 2 2 2 2
5 5 5 4 4 4 4 4 4 4 4 4 4 3 3 3 3 3 2 2 2 2 2 1 1 2 2 1 1 1 2 2 2 2 1 1 1 2 2 2 2 2 2
4 4 4 4 4 4 4 4 4 3 3 3 3 3 3 2 2 2 2 2 2 1 1 1 1 1 1 1 1 1 0 1 1 1 1 1 1 1 1 1 1 1 1
4 4 3 3 3 3 3 3 3 3 3 2 2 2 2 2 2 2 2 1 1 1 1 1 0 0 0 0 0 -0 -0 -0 -0 0 0 1 0 0 1 1 0 0 0
3 3 3 3 3 3 2 2 2 2 2 2 2 2 2 2 2 1 1 1 1 0 0 0 -0 -0 -0 -0 -1 -1 -1 -1 -1 -1 -1 -0 0 0 0 0 -0 -0 -0
3 2 2 2 2 2 2 2 2 1 1 1 1 1 1 1 1 1 1 1 0 0 0 -0 -0 -0 -1 -1 -1 -1 -1 -1 -1 -1 -2 -1 -1 -1 -0 -1 -1 -1 -1
2 2 2 2 2 2 1 1 1 1 1 1 1 1 1 1 1 0 0 0 0 0 -0 -1 -1 -1 -1 -1 -2 -2 -2 -2 -2 -2 -2 -2 -2 -1 -1 -1 -1 -1 -2
1 1 1 1 1 1 1 1 0 0 0 0 0 0 0 0 -0 -0 -1 -1 -0 -0 -1 -1 -1 -1 -1 -2 -2 -2 -2 -3 -3 -3 -2 -3 -3 -3 -3 -2 -2 -2 -2
Wind_Speed
3 3 3 3 4 3 3 2 2 2 2 2 2 2 2 2 2 1 2 2 3 3 2 2 3 3 3 3 3 4 3 3 4 5 6 7 7 8 8 8 9 9 8
4 3 2 3 3 3 2 2 2 1 1 2 2 2 2 2 2 1 1 1 2 2 2 2 3 3 4 4 4 4 4 4 5 5 6 6 7 8 8 8 8 9 9
5 4 2 2 2 2 3 3 3 2 2 2 2 2 2 2 2 1 1 1 1 1 2 2 3 3 4 4 4 4 4 4 4 5 5 6 7 7 7 8 8 9 9
5 5 3 1 2 3 3 2 2 2 2 2 2 2 2 2 2 1 1 1 0 1 2 2 3 4 4 5 5 5 4 4 4 5 6 6 6 6 7 8 8 8 9
5 5 3 2 3 3 2 2 2 1 1 2 2 2 2 2 1 2 2 2 1 1 2 3 4 5 5 5 6 6 6 5 5 6 6 7 7 7 8 8 8 8 8
4 5 3 3 3 2 2 2 2 2 1 1 2 3 3 2 2 2 2 3 4 3 3 3 3 4 5 6 6 7 7 7 7 7 7 8 8 8 8 9 9 9 9
4 4 3 2 2 2 2 2 2 2 2 1 2 2 3 3 3 2 2 3 4 4 4 4 4 3 4 5 6 8 8 8 8 8 8 8 9 9 9 9 10 10 10
4 3 3 2 2 2 2 2 2 1 1 2 2 1 2 3 3 3 3 2 2 4 4 5 5 4 4 4 6 7 8 8 9 9 9 9 9 9 9 10 10 10 10
3 3 3 2 2 2 1 2 2 2 1 2 2 2 1 1 2 2 2 3 3 3 3 4 4 4 4 4 5 6 7 8 9 10 10 9 9 9 10 10 10 10 10
3 3 3 2 2 1 1 1 1 1 2 0 1 1 1 2 1 2 2 3 4 3 3 3 3 4 5 4 5 6 7 8 9 10 10 10 9 9 10 10 10 10 10
2 2 2 2 1 1 1 1 1 1 1 1 1 0 1 1 1 1 3 3 3 2 2 2 2 3 4 4 4 6 7 8 9 10 10 10 10 9 9 10 10 9 9
1 1 1 1 1 0 0 0 1 1 1 1 1 1 1 1 1 1 2 3 4 3 3 2 2 2 3 4 4 6 7 8 9 10 10 10 10 9 9 10 10 9 9
1 2 1 1 1 1 1 1 1 1 1 1 1 1 1 2 2 2 2 3 4 3 2 2 1 2 3 4 5 6 7 8 9 10 10 11 10 10 9 10 10 10 10
3 2 2 2 2 2 1 1 1 1 1 1 2 2 2 2 2 2 2 2 3 3 2 3 2 1 3 4 6 7 6 8 9 9 10 10 10 9 9 9 9 9 10
2 3 2 2 2 2 2 1 1 2 1 2 2 2 2 2 2 2 2 2 3 4 4 3 2 2 3 5 7 6 6 8 10 10 10 10 9 9 8 9 9 9 10
3 3 3 2 2 2 2 2 2 2 2 2 2 2 3 3 2 2 2 2 3 4 5 3 3 3 4 6 8 7 7 9 10 10 10 10 9 9 9 9 9 9 9
3 3 3 3 3 3 2 2 3 3 3 3 3 3 4 3 3 2 2 3 3 3 6 5 3 3 3 4 6 7 7 7 8 10 11 11 10 9 9 9 9 8 9
4 4 3 3 3 3 3 3 4 4 4 4 4 4 5 3 3 3 3 3 4 4 5 7 5 3 4 4 4 5 6 7 7 10 11 11 10 10 10 9 9 9 9
4 4 4 4 4 4 4 4 4 5 5 5 5 5 5 4 5 4 4 4 4 4 4 5 6 4 4 3 4 5 5 5 7 9 10 10 10 10 10 10 9 8 9
4 4 4 4 4 4 4 5 5 5 5 5 5 6 6 6 6 6 5 5 4 4 4 5 5 5 4 3 3 4 5 4 5 6 8 9 10 10 10 9 9 9 8
4 4 4 4 4 4 5 5 5 5 5 5 5 6 6 7 9 7 6 5 5 5 4 5 5 5 5 3 4 3 5 5 5 4 4 5 5 5 6 9 9 9 9
4 4 4 5 5 5 6 8 6 5 5 6 6 6 6 7 9 11 11 10 8 7 6 6 6 7 7 5 4 4 4 5 5 2 3 5 3 4 5 6 10 10 9
4 5 5 5 6 7 9 9 9 5 5 6 6 6 6 6 7 6 8 9 10 12 11 8 8 8 7 6 5 5 5 6 7 4 3 6 4 5 5 8 11 9 8
5 5 6 6 6 7 9 9 9 6 5 6 6 6 7 6 6 6 5 6 6 7 9 7 7 7 7 6 6 6 6 6 6 4 3 5 4 4 5 6 9 9 9
5 5 5 6 6 7 9 10 8 4 5 6 6 6 6 7 10 10 6 6 7 6 8 10 10 10 11 11 7 3 3 4 6 4 2 3 4 5 4 4 7 8 8
5 5 6 6 7 7 9 10 9 4 5 6 5 6 9 10 11 10 6 6 7 7 5 5 6 7 7 8 9 6 5 5 5 4 3 2 3 3 3 3 3 4 5
Wind_Direction
97 82 73 71 61 52 47 41 35 26 10 1 358 353 341 330 306 283 267 244 240 246 264 275 276 279 272 267 268 274 270 270 282 279 277 268 264 263 259 257 249 248 252
104 98 81 67 55 47 43 47 47 43 19 22 11 1 346 341 335 327 304 272 264 264 275 295 299 296 288 274 269 270 272 276 283 290 287 280 276 270 266 261 256 253 249
105 97 86 72 50 57 63 52 44 54 47 36 6 351 351 348 345 339 329 310 303 305 307 323 334 329 322 310 299 296 292 290 292 296 298 294 287 282 274 269 263 259 257
103 95 82 60 58 61 55 66 51 53 33 18 353 338 344 357 357 349 18 32 341 341 359 358 351 343 337 328 318 317 316 312 310 307 304 302 302 299 291 279 271 269 266
92 91 81 58 76 71 56 62 61 68 37 4 346 346 346 348 350 30 41 37 47 47 20 8 10 5 357 349 338 330 325 322 318 313 310 305 300 299 297 293 285 274 273
87 89 75 57 68 86 67 64 71 48 59 4 7 3 350 344 7 42 37 40 45 42 32 19 9 353 354 350 345 337 333 328 322 316 310 306 303 300 296 294 293 286 278
86 85 77 58 60 88 88 76 89 63 40 31 46 14 3 3 21 22 35 48 41 32 31 24 12 3 350 345 344 339 337 328 320 314 310 305 301 298 296 295 292 289 285
88 87 81 67 62 76 73 69 75 74 32 41 79 66 359 351 1 10 16 33 33 37 29 17 13 10 359 350 346 347 343 336 327 324 317 308 301 298 296 294 291 291 289
97 88 84 71 58 78 84 79 84 94 91 10 58 117 139 250 312 332 0 14 16 18 9 2 4 357 346 344 341 345 344 338 330 325 320 313 309 306 303 297 295 293 293
105 96 92 79 65 74 83 78 83 114 130 132 359 43 146 169 196 305 325 351 358 353 343 353 1 355 349 344 339 343 341 335 331 324 322 319 315 315 315 311 304 299 298
101 110 110 96 77 74 89 89 91 103 129 166 190 179 55 45 188 209 277 306 326 320 326 332 352 350 347 350 345 345 345 343 337 332 328 323 317 315 314 315 312 311 307
127 121 126 118 130 141 167 179 166 152 173 180 190 169 178 192 221 213 254 283 296 298 311 317 338 340 337 339 338 338 335 335 332 330 326 324 323 321 317 314 313 312 310
193 213 167 166 199 212 195 171 185 204 196 195 212 217 221 229 221 226 239 272 288 294 299 304 310 333 328 330 327 326 324 326 326 325 323 324 325 323 320 317 314 313 311
203 196 186 193 208 212 206 180 210 239 222 219 241 236 244 251 234 221 221 241 285 291 279 273 292 311 322 321 320 322 318 321 322 319 319 321 322 321 318 316 315 316 313
201 188 187 191 203 206 203 195 225 245 238 237 241 244 249 256 249 238 225 212 225 270 280 265 272 292 313 310 313 318 312 312 316 315 314 314 313 313 312 312 311 312 312
191 194 203 205 217 215 202 207 231 241 233 248 241 242 253 254 252 241 231 233 225 238 265 266 259 278 309 311 314 317 311 313 313 311 310 309 306 306 305 305 305 305 307
196 201 205 208 219 227 225 224 236 237 240 255 252 244 251 246 245 244 238 239 240 234 257 275 268 284 287 294 308 313 310 310 308 307 306 305 302 302 302 301 300 303 305
203 206 206 213 225 228 225 227 239 244 241 248 252 249 255 251 243 241 238 240 245 239 245 269 280 280 274 278 290 299 308 305 304 303 303 300 298 301 303 301 298 298 300
212 211 209 218 227 231 232 233 236 244 244 245 244 244 251 245 249 245 238 241 246 254 245 255 273 275 278 284 291 295 294 296 297 299 299 297 296 299 299 297 295 296 298
215 219 223 227 231 236 238 237 235 242 247 248 244 241 243 238 241 243 245 241 240 247 248 254 269 276 276 277 275 289 299 293 293 300 296 294 293 294 294 294 293 293 293
224 224 227 236 238 241 240 237 236 240 241 249 250 246 245 244 245 247 248 238 231 241 247 253 264 275 274 275 271 275 286 296 292 282 288 290 292 293 294 290 286 284 286
228 227 234 237 242 247 253 253 250 243 240 243 251 252 250 251 254 257 258 253 244 243 243 249 259 260 264 261 263 268 277 291 292 280 288 287 280 276 281 279 280 280 281
228 233 239 240 246 250 257 259 257 253 241 243 245 248 257 256 256 247 257 260 259 257 253 248 250 253 256 251 253 262 263 268 271 278 295 286 280 275 278 279 279 277 281
227 234 241 242 248 256 259 262 263 261 250 246 243 241 245 251 248 247 246 253 254 257 259 254 246 251 250 245 240 249 256 268 274 270 253 271 280 278 285 282 278 279 286
236 239 242 241 246 258 257 259 261 255 254 254 251 245 242 245 255 257 250 251 260 262 265 260 260 261 259 257 250 249 256 271 281 278 237 254 281 292 288 278 274 278 287
239 242 248 244 242 250 256 260 260 251 257 260 256 249 249 251 257 256 245 243 256 261 257 268 269 268 264 259 254 242 236 253 269 272 240 241 271 300 295 278 278 291 295
Height
1526 1526 1527 1528 1528 1529 1530 1530 1531 1532 1532 1533 1533 1533 1533 1534 1534 1534 1534 1535 1535 1535 1535 1536 1536 1536 1536 1536 1536 1536 1536 1536 1536 1535 1535 1535 1535 1535 1535 1535 1535 1535 1535
1524 1525 1525 1526 1527 1528 1528 1529 1529 1530 1531 1531 1531 1531 1532 1532 1532 1532 1532 1532 1533 1533 1533 1533 1533 1534 1534 1534 1533 1533 1533 1533 1533 1533 1532 1532 1532 1532 1532 1532 1532 1532 1532
1523 1524 1524 1525 1526 1526 1527 1527 1528 1528 1529 1529 1529 1530 1530 1530 1530 1530 1530 1530 1530 1530 1531 1531 1531 1531 1531 1531 1531 1531 1531 1530 1530 1530 1530 1529 1529 1529 1529 1528 1528 1528 1528
1522 1523 1523 1524 1524 1525 1525 1526 1526 1526 1526 1527 1527 1527 1528 1528 1528 1528 1528 1528 1528 1528 1528 1528 1528 1528 1528 1528 1528 1528 1528 1527 1527 1526 1526 1526 1526 1525 1525 1525 1525 1525 1525
1521 1521 1522 1522 1523 1523 1524 1524 1524 1524 1524 1524 1525 1525 1525 1525 1525 1525 1525 1525 1525 1525 1525 1525 1525 1525 1525 1525 1525 1525 1524 1524 1523 1523 1523 1522 1522 1522 1521 1521 1521 1521 1521
1519 1520 1520 1521 1521 1521 1522 1522 1522 1522 1522 1522 1522 1523 1523 1523 1523 1523 1523 1523 1523 1523 1523 1523 1523 1522 1522 1522 1522 1521 1521 1520 1520 1519 1519 1518 1518 1518 1517 1517 1517 1517 1517
1518 1518 1519 1519 1519 1520 1520 1520 1520 1520 1520 1520 1520 1520 1521 1521 1521 1521 1521 1521 1521 1520 1520 1520 1520 1519 1519 1519 1518 1518 1517 1517 1516 1516 1515 1514 1514 1513 1513 1512 1512 1512 1512
1516 1517 1517 1518 1518 1518 1518 1518 1518 1518 1518 1518 1518 1518 1518 1519 1518 1519 1518 1518 1518 1518 1518 1517 1517 1516 1515 1515 1514 1514 1513 1513 1512 1512 1511 1510 1510 1509 1508 1508 1507 1507 1507
1515 1515 1516 1516 1516 1516 1516 1516 1516 1516 1516 1516 1516 1517 1517 1515 1515 1515 1515 1515 1515 1515 1515 1514 1514 1513 1512 1512 1511 1510 1509 1509 1508 1507 1507 1506 1505 1505 1504 1503 1503 1502 1502
1513 1513 1514 1514 1514 1514 1514 1514 1514 1514 1514 1514 1514 1514 1515 1514 1514 1512 1512 1512 1512 1512 1511 1511 1510 1510 1509 1508 1507 1506 1506 1505 1504 1503 1502 1501 1501 1500 1499 1498 1498 1497 1497
1511 1511 1512 1512 1512 1512 1512 1512 1512 1512 1512 1512 1512 1511 1511 1511 1511 1510 1508 1508 1508 1508 1508 1507 1507 1506 1506 1505 1504 1503 1502 1501 1500 1499 1498 1497 1496 1495 1494 1494 1493 1492 1492
1509 1509 1510 1510 1510 1510 1510 1510 1510 1510 1510 1509 1509 1508 1508 1508 1508 1507 1506 1505 1504 1504 1504 1504 1504 1503 1502 1501 1500 1499 1498 1497 1496 1495 1494 1493 1492 1491 1490 1489 1488 1487 1487
1506 1507 1507 1508 1508 1508 1508 1508 1507 1507 1507 1506 1506 1505 1505 1505 1505 1505 1504 1502 1501 1500 1500 1500 1500 1499 1499 1498 1496 1495 1494 1493 1492 1490 1489 1488 1487 1486 1485 1484 1483 1482 1482
1504 1504 1505 1505 1505 1505 1505 1505 1504 1504 1503 1503 1503 1502 1502 1502 1502 1501 1501 1500 1498 1497 1496 1496 1496 1496 1495 1494 1492 1491 1490 1489 1487 1486 1485 1484 1483 1481 1480 1479 1478 1477 1477
1501 1502 1502 1502 1502 1502 1502 1501 1501 1500 1500 1500 1499 1499 1498 1498 1498 1498 1497 1497 1497 1494 1491 1491 1492 1491 1491 1490 1488 1487 1485 1484 1483 1482 1480 1479 1478 1477 1475 1474 1473 1473 1472
1498 1498 1498 1498 1498 1498 1498 1498 1497 1497 1496 1496 1496 1495 1494 1494 1494 1493 1493 1493 1492 1491 1488 1487 1487 1487 1487 1485 1484 1483 1481 1480 1478 1477 1475 1474 1473 1472 1470 1469 1468 1468 1466
1494 1495 1495 1495 1494 1494 1494 1493 1493 1493 1492 1492 1491 1491 1490 1490 1489 1488 1488 1488 1487 1487 1485 1482 1483 1482 1482 1481 1479 1478 1477 1475 1473 1472 1471 1469 1468 1467 1466 1465 1463 1462 1461
1491 1491 1491 1490 1490 1490 1489 1489 1489 1488 1488 1487 1487 1486 1485 1485 1484 1484 1483 1483 1482 1482 1481 1478 1477 1477 1476 1476 1474 1473 1471 1470 1469 1467 1466 1464 1463 1462 1461 1459 1458 1457 1456
1486 1486 1486 1486 1486 1485 1485 1484 1484 1483 1483 1482 1482 1481 1481 1480 1479 1479 1479 1478 1478 1477 1476 1475 1472 1472 1471 1471 1469 1468 1467 1465 1464 1462 1461 1459 1458 1457 1456 1454 1453 1452 1451
1482 1482 1482 1481 1481 1481 1480 1480 1479 1478 1478 1477 1477 1476 1476 1476 1475 1475 1474 1473 1473 1472 1471 1470 1468 1467 1466 1465 1464 1463 1461 1460 1458 1457 1456 1454 1453 1452 1450 1449 1448 1446 1445
1477 1477 1477 1476 1476 1476 1475 1475 1474 1473 1473 1472 1471 1471 1471 1470 1470 1469 1469 1468 1467 1467 1466 1464 1463 1462 1461 1460 1459 1458 1456 1454 1453 1452 1450 1449 1448 1446 1445 1443 1442 1441 1440
1472 1472 1472 1471 1471 1471 1470 1470 1469 1468 1467 1467 1466 1465 1465 1465 1464 1464 1463 1462 1462 1461 1460 1459 1458 1457 1455 1455 1454 1453 1452 1450 1447 1447 1445 1443 1443 1441 1439 1438 1437 1435 1434
1467 1467 1466 1466 1466 1465 1465 1465 1464 1463 1462 1461 1460 1460 1459 1459 1458 1457 1457 1456 1456 1455 1455 1455 1452 1451 1451 1450 1449 1448 1447 1445 1443 1442 1441 1437 1437 1435 1434 1432 1431 1430 1429
1462 1461 1461 1461 1460 1460 1460 1459 1458 1457 1456 1455 1455 1454 1453 1452 1452 1452 1450 1450 1449 1449 1449 1448 1447 1446 1446 1445 1444 1443 1441 1440 1438 1437 1436 1432 1431 1429 1428 1427 1426 1425 1424
1456 1456 1456 1455 1454 1454 1454 1453 1452 1451 1450 1449 1448 1448 1447 1446 1446 1446 1445 1443 1442 1442 1442 1442 1441 1441 1440 1439 1439 1438 1436 1434 1431 1431 1430 1428 1425 1424 1422 1421 1421 1420 1418
1450 1450 1450 1449 1449 1448 1448 1447 1447 1445 1444 1443 1442 1441 1441 1441 1440 1439 1439 1437 1436 1436 1436 1435 1435 1434 1434 1433 1433 1432 1430 1429 1427 1425 1424 1423 1421 1420 1417 1415 1415 1414 1413